Погода в Бычихе

Беларусь     55°40′35″N   29°58′49″E
темп.,
°C
ветер,
м/с
пор.,
м/с
влажн.,
%
обл.,
%
осадки,
мм/ч
давл.,
гПа
погр.,
м
20 января, чт
чт2000:00−1юз51393100 0.0 1007464
03:00−1юз51392100 0.0 1005400
06:00−2ююз51493100 0.0 1001397
09:00−1ю61791100 0.0 997613
12:00−1ююз61493100 0.0 995952
15:00−2ююз61295100 1.2 993930
18:00−1юз61190100 0.6 9921006
21:00−3ююз51293100 0.8 992925
21 января, пт
пт2100:00−3ююз6138639 0.1 991914
03:00−4ю71388100 0.2 990815
06:00−6ю61493100 0.6 988771
09:00−4ююв41095100 1.3 987519
12:00−3ююз1395100 0.9 988352
15:00−2ссз2496100 2.0 989438
18:00−5ссз4995100 0.9 993513
21:00−6ссз4895100 1.3 995478
22 января, сб
сб2200:00−6ссз3995100 0.5 997526
03:00−6ссз4995100 0.9 999539
06:00−6с41094100 0.5 1002567
09:00−8с41194100 0.6 1005446
12:00−7с3994100 0.1 1008417
15:00−6с3893100 0.1 1010453
18:00−8ссв3994100 0.1 1013355
21:00−9с399689 0.1 1016256
23 января, вс
вс2300:00−8ссв399489 0.1 1019387
03:00−10ссв3897100 0.1 1021232
06:00−13ссв269999 0.0 1024138
09:00−15св279988 0.1 1027120
12:00−10всв249479 0.0 1030145
15:00−8ссв249295 0.0 1031241
18:00−13св229979 0.0 103421
21:00−15всв1110094 0.0 103517
24 января, пн
пн2400:00−17св11100100 0.0 103710
03:00−17в11100100 0.0 10379
06:00−18вюв0010095 0.0 10379
09:00−18ю1110076 0.0 10379
12:00−10ю129232 0.0 103599
15:00−8ююз239165 0.0 1034219
18:00−14ююз249871 0.0 103355
21:00−14ююз279744 0.0 103290